Datum / Uhrzeit;kW;;
01.01.2023 00:15;73.258;;
01.01.2023 00:30;76.737;;
01.01.2023 00:45;71.930;;
01.01.2023 01:00;67.794;;
01.01.2023 01:15;72.726;;
01.01.2023 01:30;74.277;;
01.01.2023 01:45;70.114;;
01.01.2023 02:00;64.491;;
01.01.2023 02:15;63.458;;
01.01.2023 02:30;60.365;;
01.01.2023 02:45;55.909;;
01.01.2023 03:00;56.135;;
01.01.2023 03:15;54.321;;
01.01.2023 03:30;53.344;;
01.01.2023 03:45;56.976;;
01.01.2023 04:00;59.618;;
01.01.2023 04:15;62.083;;
01.01.2023 04:30;66.811;;
01.01.2023 04:45;67.524;;
01.01.2023 05:00;66.361;;
01.01.2023 05:15;63.848;;
01.01.2023 05:30;60.493;;
01.01.2023 05:45;59.939;;
01.01.2023 06:00;59.731;;
01.01.2023 06:15;57.190;;
01.01.2023 06:30;60.659;;
01.01.2023 06:45;59.783;;
01.01.2023 07:00;58.192;;
01.01.2023 07:15;59.691;;
01.01.2023 07:30;58.551;;
01.01.2023 07:45;60.551;;
01.01.2023 08:00;57.087;;
01.01.2023 08:15;57.648;;
01.01.2023 08:30;57.808;;
01.01.2023 08:45;58.360;;
01.01.2023 09:00;59.690;;
01.01.2023 09:15;59.579;;
01.01.2023 09:30;64.540;;
01.01.2023 09:45;65.257;;
01.01.2023 10:00;68.841;;
01.01.2023 10:15;66.908;;
01.01.2023 10:30;66.948;;
01.01.2023 10:45;70.475;;
01.01.2023 11:00;71.251;;
01.01.2023 11:15;73.665;;
01.01.2023 11:30;78.006;;
01.01.2023 11:45;70.499;;
01.01.2023 12:00;78.064;;
01.01.2023 12:15;84.902;;
01.01.2023 12:30;94.031;;
01.01.2023 12:45;96.996;;
01.01.2023 13:00;96.443;;
01.01.2023 13:15;95.493;;
01.01.2023 13:30;99.097;;
01.01.2023 13:45;99.856;;
01.01.2023 14:00;105.829;;
01.01.2023 14:15;109.467;;
01.01.2023 14:30;112.847;;
01.01.2023 14:45;112.101;;
01.01.2023 15:00;112.386;;
01.01.2023 15:15;109.131;;
01.01.2023 15:30;107.428;;
01.01.2023 15:45;107.339;;
01.01.2023 16:00;110.193;;
01.01.2023 16:15;117.527;;
01.01.2023 16:30;125.900;;
01.01.2023 16:45;129.241;;
01.01.2023 17:00;133.004;;
01.01.2023 17:15;134.286;;
01.01.2023 17:30;142.667;;
01.01.2023 17:45;148.388;;
01.01.2023 18:00;141.452;;
01.01.2023 18:15;136.128;;
01.01.2023 18:30;133.828;;
01.01.2023 18:45;127.716;;
01.01.2023 19:00;120.222;;
01.01.2023 19:15;117.014;;
01.01.2023 19:30;111.252;;
01.01.2023 19:45;109.832;;
01.01.2023 20:00;101.510;;
01.01.2023 20:15;97.401;;
01.01.2023 20:30;94.465;;
01.01.2023 20:45;95.000;;
01.01.2023 21:00;93.578;;
01.01.2023 21:15;89.313;;
01.01.2023 21:30;88.459;;
01.01.2023 21:45;90.085;;
01.01.2023 22:00;87.262;;
01.01.2023 22:15;89.844;;
01.01.2023 22:30;90.573;;
01.01.2023 22:45;86.098;;
01.01.2023 23:00;85.302;;
01.01.2023 23:15;81.184;;
01.01.2023 23:30;78.488;;
01.01.2023 23:45;73.797;;
02.01.2023 00:00;70.347;;
02.01.2023 00:15;67.290;;
02.01.2023 00:30;65.883;;
02.01.2023 00:45;65.536;;
02.01.2023 01:00;63.634;;
02.01.2023 01:15;67.061;;
02.01.2023 01:30;68.804;;
02.01.2023 01:45;66.262;;
02.01.2023 02:00;63.061;;
02.01.2023 02:15;59.405;;
02.01.2023 02:30;54.832;;
02.01.2023 02:45;55.946;;
02.01.2023 03:00;53.482;;
02.01.2023 03:15;52.333;;
02.01.2023 03:30;55.376;;
02.01.2023 03:45;54.961;;
02.01.2023 04:00;58.999;;
02.01.2023 04:15;65.165;;
02.01.2023 04:30;64.569;;
02.01.2023 04:45;68.954;;
02.01.2023 05:00;75.503;;
02.01.2023 05:15;82.484;;
02.01.2023 05:30;85.259;;
02.01.2023 05:45;89.472;;
02.01.2023 06:00;95.557;;
02.01.2023 06:15;100.436;;
02.01.2023 06:30;103.064;;
02.01.2023 06:45;102.917;;
02.01.2023 07:00;102.796;;
02.01.2023 07:15;107.271;;
02.01.2023 07:30;109.047;;
02.01.2023 07:45;113.222;;
02.01.2023 08:00;118.601;;
02.01.2023 08:15;120.593;;
02.01.2023 08:30;121.062;;
02.01.2023 08:45;121.178;;
02.01.2023 09:00;116.759;;
02.01.2023 09:15;117.991;;
02.01.2023 09:30;111.493;;
02.01.2023 09:45;104.462;;
02.01.2023 10:00;107.173;;
02.01.2023 10:15;108.836;;
02.01.2023 10:30;116.777;;
02.01.2023 10:45;115.347;;
02.01.2023 11:00;99.277;;
02.01.2023 11:15;101.972;;
02.01.2023 11:30;110.363;;
02.01.2023 11:45;109.651;;
02.01.2023 12:00;110.678;;
02.01.2023 12:15;108.267;;
02.01.2023 12:30;115.947;;
02.01.2023 12:45;126.166;;
02.01.2023 13:00;125.195;;
02.01.2023 13:15;115.368;;
02.01.2023 13:30;123.771;;
02.01.2023 13:45;124.040;;
02.01.2023 14:00;126.539;;
02.01.2023 14:15;127.054;;
02.01.2023 14:30;123.139;;
02.01.2023 14:45;126.253;;
02.01.2023 15:00;129.240;;
02.01.2023 15:15;132.159;;
02.01.2023 15:30;130.015;;
02.01.2023 15:45;129.851;;
02.01.2023 16:00;134.545;;
02.01.2023 16:15;136.774;;
02.01.2023 16:30;130.058;;
02.01.2023 16:45;120.441;;
02.01.2023 17:00;132.479;;
02.01.2023 17:15;158.160;;
02.01.2023 17:30;180.837;;
02.01.2023 17:45;167.672;;
02.01.2023 18:00;157.938;;
02.01.2023 18:15;152.554;;
02.01.2023 18:30;149.444;;
02.01.2023 18:45;140.644;;
02.01.2023 19:00;139.341;;
02.01.2023 19:15;132.906;;
02.01.2023 19:30;134.925;;
02.01.2023 19:45;133.575;;
02.01.2023 20:00;136.143;;
02.01.2023 20:15;126.080;;
02.01.2023 20:30;118.897;;
02.01.2023 20:45;121.300;;
02.01.2023 21:00;129.512;;
02.01.2023 21:15;134.396;;
02.01.2023 21:30;130.999;;
02.01.2023 21:45;132.229;;
02.01.2023 22:00;130.312;;
02.01.2023 22:15;131.269;;
02.01.2023 22:30;125.804;;
02.01.2023 22:45;130.369;;
02.01.2023 23:00;132.534;;
02.01.2023 23:15;130.152;;
02.01.2023 23:30;125.395;;
02.01.2023 23:45;122.463;;
03.01.2023 00:00;117.168;;
03.01.2023 00:15;112.809;;
03.01.2023 00:30;113.231;;
03.01.2023 00:45;114.578;;
03.01.2023 01:00;112.816;;
03.01.2023 01:15;110.010;;
03.01.2023 01:30;106.821;;
03.01.2023 01:45;105.807;;
03.01.2023 02:00;102.748;;
03.01.2023 02:15;101.321;;
03.01.2023 02:30;99.972;;
03.01.2023 02:45;101.451;;
03.01.2023 03:00;101.577;;
03.01.2023 03:15;99.240;;
03.01.2023 03:30;97.379;;
03.01.2023 03:45;97.879;;
03.01.2023 04:00;94.248;;
03.01.2023 04:15;94.915;;
03.01.2023 04:30;98.038;;
03.01.2023 04:45;102.569;;
03.01.2023 05:00;105.231;;
03.01.2023 05:15;114.210;;
03.01.2023 05:30;118.469;;
03.01.2023 05:45;122.830;;
03.01.2023 06:00;130.316;;
03.01.2023 06:15;138.572;;
03.01.2023 06:30;142.672;;
03.01.2023 06:45;142.721;;
03.01.2023 07:00;147.965;;
03.01.2023 07:15;157.972;;
03.01.2023 07:30;159.640;;
03.01.2023 07:45;167.531;;
03.01.2023 08:00;178.805;;
03.01.2023 08:15;184.555;;
03.01.2023 08:30;188.687;;
03.01.2023 08:45;191.414;;
03.01.2023 09:00;196.311;;
03.01.2023 09:15;200.265;;
03.01.2023 09:30;202.278;;
03.01.2023 09:45;196.704;;
03.01.2023 10:00;190.291;;
03.01.2023 10:15;183.024;;
03.01.2023 10:30;172.663;;
03.01.2023 10:45;159.520;;
03.01.2023 11:00;154.115;;
03.01.2023 11:15;153.862;;
03.01.2023 11:30;161.621;;
03.01.2023 11:45;164.477;;
03.01.2023 12:00;168.564;;
03.01.2023 12:15;174.944;;
03.01.2023 12:30;176.276;;
03.01.2023 12:45;170.059;;
03.01.2023 13:00;169.994;;
03.01.2023 13:15;178.766;;
03.01.2023 13:30;177.733;;
03.01.2023 13:45;168.819;;
03.01.2023 14:00;159.315;;
03.01.2023 14:15;156.286;;
03.01.2023 14:30;157.672;;
03.01.2023 14:45;156.285;;
03.01.2023 15:00;151.314;;
03.01.2023 15:15;150.191;;
03.01.2023 15:30;149.951;;
03.01.2023 15:45;153.478;;
03.01.2023 16:00;157.625;;
03.01.2023 16:15;166.684;;
03.01.2023 16:30;171.196;;
03.01.2023 16:45;175.161;;
03.01.2023 17:00;177.175;;
03.01.2023 17:15;177.436;;
03.01.2023 17:30;174.036;;
03.01.2023 17:45;170.001;;
03.01.2023 18:00;167.307;;
03.01.2023 18:15;162.960;;
03.01.2023 18:30;151.439;;
03.01.2023 18:45;147.410;;
03.01.2023 19:00;143.088;;
03.01.2023 19:15;139.973;;
03.01.2023 19:30;143.315;;
03.01.2023 19:45;143.463;;
03.01.2023 20:00;145.602;;
03.01.2023 20:15;143.244;;
03.01.2023 20:30;136.716;;
03.01.2023 20:45;133.628;;
03.01.2023 21:00;133.039;;
03.01.2023 21:15;132.788;;
03.01.2023 21:30;127.114;;
03.01.2023 21:45;125.259;;
03.01.2023 22:00;122.772;;
03.01.2023 22:15;119.591;;
03.01.2023 22:30;115.241;;
03.01.2023 22:45;114.259;;
03.01.2023 23:00;111.506;;
03.01.2023 23:15;101.379;;
03.01.2023 23:30;97.135;;
03.01.2023 23:45;93.556;;
04.01.2023 00:00;91.689;;
04.01.2023 00:15;89.251;;
04.01.2023 00:30;91.501;;
04.01.2023 00:45;87.279;;
04.01.2023 01:00;86.931;;
04.01.2023 01:15;86.905;;
04.01.2023 01:30;87.607;;
04.01.2023 01:45;85.947;;
04.01.2023 02:00;88.916;;
04.01.2023 02:15;88.535;;
04.01.2023 02:30;84.227;;
04.01.2023 02:45;86.643;;
04.01.2023 03:00;87.714;;
04.01.2023 03:15;84.732;;
04.01.2023 03:30;84.277;;
04.01.2023 03:45;84.047;;
04.01.2023 04:00;82.688;;
04.01.2023 04:15;80.360;;
04.01.2023 04:30;77.240;;
04.01.2023 04:45;72.488;;
04.01.2023 05:00;76.251;;
04.01.2023 05:15;75.020;;
04.01.2023 05:30;69.453;;
04.01.2023 05:45;71.079;;
04.01.2023 06:00;76.745;;
04.01.2023 06:15;80.806;;
04.01.2023 06:30;84.472;;
04.01.2023 06:45;85.686;;
04.01.2023 07:00;87.513;;
04.01.2023 07:15;92.488;;
04.01.2023 07:30;98.559;;
04.01.2023 07:45;99.677;;
04.01.2023 08:00;98.338;;
04.01.2023 08:15;104.695;;
04.01.2023 08:30;107.371;;
04.01.2023 08:45;106.412;;
04.01.2023 09:00;107.782;;
04.01.2023 09:15;110.687;;
04.01.2023 09:30;110.722;;
04.01.2023 09:45;111.950;;
04.01.2023 10:00;113.916;;
04.01.2023 10:15;117.292;;
04.01.2023 10:30;122.886;;
04.01.2023 10:45;126.247;;
04.01.2023 11:00;128.284;;
04.01.2023 11:15;125.711;;
04.01.2023 11:30;127.143;;
04.01.2023 11:45;132.414;;
04.01.2023 12:00;134.378;;
04.01.2023 12:15;129.260;;
04.01.2023 12:30;123.584;;
04.01.2023 12:45;129.150;;
04.01.2023 13:00;129.313;;
04.01.2023 13:15;124.531;;
04.01.2023 13:30;124.004;;
04.01.2023 13:45;116.049;;
04.01.2023 14:00;113.658;;
04.01.2023 14:15;112.642;;
04.01.2023 14:30;113.893;;
04.01.2023 14:45;111.437;;
04.01.2023 15:00;110.899;;
04.01.2023 15:15;110.789;;
04.01.2023 15:30;110.264;;
04.01.2023 15:45;109.819;;
04.01.2023 16:00;108.555;;
04.01.2023 16:15;108.441;;
04.01.2023 16:30;108.844;;
04.01.2023 16:45;110.548;;
04.01.2023 17:00;117.092;;
04.01.2023 17:15;124.618;;
04.01.2023 17:30;123.486;;
04.01.2023 17:45;122.481;;
04.01.2023 18:00;120.969;;
04.01.2023 18:15;119.235;;
04.01.2023 18:30;118.215;;
04.01.2023 18:45;117.862;;
04.01.2023 19:00;116.824;;
04.01.2023 19:15;113.681;;
04.01.2023 19:30;113.070;;
04.01.2023 19:45;112.315;;
04.01.2023 20:00;110.399;;
04.01.2023 20:15;107.315;;
04.01.2023 20:30;106.335;;
04.01.2023 20:45;102.134;;
04.01.2023 21:00;98.275;;
04.01.2023 21:15;94.297;;
04.01.2023 21:30;92.896;;
04.01.2023 21:45;92.631;;
04.01.2023 22:00;91.776;;
04.01.2023 22:15;92.474;;
04.01.2023 22:30;91.367;;
04.01.2023 22:45;88.412;;
04.01.2023 23:00;86.211;;
04.01.2023 23:15;82.819;;
04.01.2023 23:30;79.171;;
04.01.2023 23:45;78.394;;
05.01.2023 00:00;78.768;;
05.01.2023 00:15;77.458;;
05.01.2023 00:30;72.909;;
05.01.2023 00:45;69.804;;
05.01.2023 01:00;68.649;;
05.01.2023 01:15;66.594;;
05.01.2023 01:30;67.487;;
05.01.2023 01:45;66.046;;
05.01.2023 02:00;65.838;;
05.01.2023 02:15;64.519;;
05.01.2023 02:30;61.973;;
05.01.2023 02:45;62.052;;
05.01.2023 03:00;61.585;;
05.01.2023 03:15;63.011;;
05.01.2023 03:30;66.725;;
05.01.2023 03:45;74.823;;
05.01.2023 04:00;82.141;;
05.01.2023 04:15;75.095;;
05.01.2023 04:30;84.649;;
05.01.2023 04:45;77.858;;
05.01.2023 05:00;75.249;;
05.01.2023 05:15;77.343;;
05.01.2023 05:30;76.540;;
05.01.2023 05:45;87.847;;
05.01.2023 06:00;94.398;;
05.01.2023 06:15;103.203;;
05.01.2023 06:30;104.767;;
05.01.2023 06:45;107.826;;
05.01.2023 07:00;110.693;;
05.01.2023 07:15;116.031;;
05.01.2023 07:30;123.595;;
05.01.2023 07:45;125.262;;
05.01.2023 08:00;135.572;;
05.01.2023 08:15;149.493;;
05.01.2023 08:30;135.896;;
05.01.2023 08:45;138.938;;
05.01.2023 09:00;141.631;;
05.01.2023 09:15;136.724;;
05.01.2023 09:30;130.998;;
05.01.2023 09:45;120.460;;
05.01.2023 10:00;131.121;;
05.01.2023 10:15;136.242;;
05.01.2023 10:30;132.981;;
05.01.2023 10:45;127.933;;
05.01.2023 11:00;128.264;;
05.01.2023 11:15;120.399;;
05.01.2023 11:30;116.876;;
05.01.2023 11:45;115.033;;
05.01.2023 12:00;126.438;;
05.01.2023 12:15;124.130;;
05.01.2023 12:30;124.920;;
05.01.2023 12:45;135.119;;
05.01.2023 13:00;135.043;;
05.01.2023 13:15;133.067;;
05.01.2023 13:30;130.166;;
05.01.2023 13:45;124.128;;
05.01.2023 14:00;133.959;;
05.01.2023 14:15;139.021;;
05.01.2023 14:30;146.328;;
05.01.2023 14:45;155.137;;
05.01.2023 15:00;157.983;;
05.01.2023 15:15;157.632;;
05.01.2023 15:30;154.671;;
05.01.2023 15:45;149.762;;
05.01.2023 16:00;146.776;;
05.01.2023 16:15;151.273;;
05.01.2023 16:30;154.182;;
05.01.2023 16:45;156.521;;
05.01.2023 17:00;158.300;;
05.01.2023 17:15;164.650;;
05.01.2023 17:30;171.708;;
05.01.2023 17:45;180.166;;
05.01.2023 18:00;177.885;;
05.01.2023 18:15;171.108;;
05.01.2023 18:30;175.227;;
05.01.2023 18:45;176.272;;
05.01.2023 19:00;180.926;;
05.01.2023 19:15;172.019;;
05.01.2023 19:30;167.980;;
05.01.2023 19:45;161.391;;
05.01.2023 20:00;152.762;;
05.01.2023 20:15;147.972;;
05.01.2023 20:30;147.775;;
05.01.2023 20:45;143.035;;
05.01.2023 21:00;137.922;;
05.01.2023 21:15;136.002;;
05.01.2023 21:30;132.463;;
05.01.2023 21:45;132.859;;
05.01.2023 22:00;131.795;;
05.01.2023 22:15;132.260;;
05.01.2023 22:30;133.440;;
05.01.2023 22:45;130.309;;
05.01.2023 23:00;124.081;;
05.01.2023 23:15;118.014;;
05.01.2023 23:30;114.516;;
05.01.2023 23:45;108.316;;
06.01.2023 00:00;107.599;;
06.01.2023 00:15;101.825;;
06.01.2023 00:30;98.876;;
06.01.2023 00:45;94.650;;
06.01.2023 01:00;95.901;;
06.01.2023 01:15;95.998;;
06.01.2023 01:30;87.747;;
06.01.2023 01:45;87.345;;
06.01.2023 02:00;91.931;;
06.01.2023 02:15;92.181;;
06.01.2023 02:30;89.599;;
06.01.2023 02:45;90.955;;
06.01.2023 03:00;91.556;;
06.01.2023 03:15;96.638;;
06.01.2023 03:30;96.560;;
06.01.2023 03:45;94.702;;
06.01.2023 04:00;96.961;;
06.01.2023 04:15;98.371;;
06.01.2023 04:30;97.403;;
06.01.2023 04:45;103.005;;
06.01.2023 05:00;102.632;;
06.01.2023 05:15;102.073;;
06.01.2023 05:30;102.689;;
06.01.2023 05:45;111.352;;
06.01.2023 06:00;118.077;;
06.01.2023 06:15;123.742;;
06.01.2023 06:30;128.127;;
06.01.2023 06:45;139.718;;
06.01.2023 07:00;143.626;;
06.01.2023 07:15;142.288;;
06.01.2023 07:30;144.035;;
06.01.2023 07:45;143.314;;
06.01.2023 08:00;137.370;;
06.01.2023 08:15;136.311;;
06.01.2023 08:30;139.328;;
06.01.2023 08:45;142.480;;
06.01.2023 09:00;142.743;;
06.01.2023 09:15;142.575;;
06.01.2023 09:30;141.980;;
06.01.2023 09:45;142.155;;
06.01.2023 10:00;137.711;;
06.01.2023 10:15;136.142;;
06.01.2023 10:30;144.903;;
06.01.2023 10:45;144.369;;
06.01.2023 11:00;144.036;;
06.01.2023 11:15;141.606;;
06.01.2023 11:30;139.453;;
06.01.2023 11:45;135.731;;
06.01.2023 12:00;126.317;;
06.01.2023 12:15;121.840;;
06.01.2023 12:30;104.096;;
06.01.2023 12:45;99.272;;
06.01.2023 13:00;101.331;;
06.01.2023 13:15;104.368;;
06.01.2023 13:30;104.429;;
06.01.2023 13:45;112.452;;
06.01.2023 14:00;114.524;;
06.01.2023 14:15;122.438;;
06.01.2023 14:30;126.797;;
06.01.2023 14:45;122.358;;
06.01.2023 15:00;121.380;;
06.01.2023 15:15;119.685;;
06.01.2023 15:30;124.066;;
06.01.2023 15:45;130.348;;
06.01.2023 16:00;139.689;;
06.01.2023 16:15;140.059;;
06.01.2023 16:30;141.454;;
06.01.2023 16:45;139.968;;
06.01.2023 17:00;138.707;;
06.01.2023 17:15;142.625;;
06.01.2023 17:30;150.959;;
06.01.2023 17:45;153.279;;
06.01.2023 18:00;152.286;;
06.01.2023 18:15;145.864;;
06.01.2023 18:30;147.952;;
06.01.2023 18:45;147.065;;
06.01.2023 19:00;139.931;;
06.01.2023 19:15;137.215;;
06.01.2023 19:30;143.621;;
06.01.2023 19:45;142.134;;
06.01.2023 20:00;139.573;;
06.01.2023 20:15;142.293;;
06.01.2023 20:30;143.400;;
06.01.2023 20:45;145.036;;
06.01.2023 21:00;143.048;;
06.01.2023 21:15;135.090;;
06.01.2023 21:30;132.314;;
06.01.2023 21:45;138.943;;
06.01.2023 22:00;141.662;;
06.01.2023 22:15;146.319;;
06.01.2023 22:30;149.397;;
06.01.2023 22:45;151.867;;
06.01.2023 23:00;146.864;;
06.01.2023 23:15;137.070;;
06.01.2023 23:30;131.136;;
06.01.2023 23:45;131.985;;
07.01.2023 00:00;131.037;;
07.01.2023 00:15;129.473;;
07.01.2023 00:30;127.451;;
07.01.2023 00:45;123.084;;
07.01.2023 01:00;117.290;;
07.01.2023 01:15;110.533;;
07.01.2023 01:30;106.758;;
07.01.2023 01:45;104.443;;
07.01.2023 02:00;103.942;;
07.01.2023 02:15;103.729;;
07.01.2023 02:30;106.047;;
07.01.2023 02:45;104.040;;
07.01.2023 03:00;101.573;;
07.01.2023 03:15;99.937;;
07.01.2023 03:30;99.166;;
07.01.2023 03:45;101.103;;
07.01.2023 04:00;100.370;;
07.01.2023 04:15;101.478;;
07.01.2023 04:30;102.430;;
07.01.2023 04:45;103.312;;
07.01.2023 05:00;105.291;;
07.01.2023 05:15;106.185;;
07.01.2023 05:30;106.186;;
07.01.2023 05:45;105.329;;
07.01.2023 06:00;105.243;;
07.01.2023 06:15;106.210;;
07.01.2023 06:30;103.300;;
07.01.2023 06:45;104.301;;
07.01.2023 07:00;100.310;;
07.01.2023 07:15;102.236;;
07.01.2023 07:30;101.971;;
07.01.2023 07:45;103.725;;
07.01.2023 08:00;107.680;;
07.01.2023 08:15;105.419;;
07.01.2023 08:30;100.786;;
07.01.2023 08:45;100.477;;
07.01.2023 09:00;104.530;;
07.01.2023 09:15;112.065;;
07.01.2023 09:30;117.184;;
07.01.2023 09:45;120.249;;
07.01.2023 10:00;118.215;;
07.01.2023 10:15;117.254;;
07.01.2023 10:30;116.886;;
07.01.2023 10:45;113.621;;
07.01.2023 11:00;110.741;;
07.01.2023 11:15;109.602;;
07.01.2023 11:30;110.399;;
07.01.2023 11:45;115.772;;
07.01.2023 12:00;115.701;;
07.01.2023 12:15;120.367;;
07.01.2023 12:30;120.081;;
07.01.2023 12:45;112.853;;
07.01.2023 13:00;111.898;;
07.01.2023 13:15;111.538;;
07.01.2023 13:30;109.919;;
07.01.2023 13:45;111.529;;
07.01.2023 14:00;112.185;;
07.01.2023 14:15;111.354;;
07.01.2023 14:30;112.766;;
07.01.2023 14:45;113.085;;
07.01.2023 15:00;114.697;;
07.01.2023 15:15;117.162;;
07.01.2023 15:30;116.996;;
07.01.2023 15:45;117.424;;
07.01.2023 16:00;117.352;;
07.01.2023 16:15;117.525;;
07.01.2023 16:30;115.926;;
07.01.2023 16:45;120.984;;
07.01.2023 17:00;120.035;;
07.01.2023 17:15;122.722;;
07.01.2023 17:30;120.919;;
07.01.2023 17:45;120.281;;
07.01.2023 18:00;122.601;;
07.01.2023 18:15;127.840;;
07.01.2023 18:30;126.595;;
07.01.2023 18:45;126.437;;
07.01.2023 19:00;126.242;;
07.01.2023 19:15;124.490;;
07.01.2023 19:30;118.745;;
07.01.2023 19:45;116.251;;
07.01.2023 20:00;112.064;;
07.01.2023 20:15;108.674;;
07.01.2023 20:30;104.816;;
07.01.2023 20:45;102.217;;
07.01.2023 21:00;108.191;;
07.01.2023 21:15;108.220;;
07.01.2023 21:30;104.057;;
07.01.2023 21:45;106.012;;
07.01.2023 22:00;110.331;;
07.01.2023 22:15;118.128;;
07.01.2023 22:30;119.637;;
07.01.2023 22:45;114.696;;
07.01.2023 23:00;110.784;;
07.01.2023 23:15;100.642;;
07.01.2023 23:30;89.976;;
07.01.2023 23:45;82.052;;
08.01.2023 00:00;75.731;;
08.01.2023 00:15;73.546;;
08.01.2023 00:30;74.564;;
08.01.2023 00:45;69.752;;
08.01.2023 01:00;73.493;;
08.01.2023 01:15;81.876;;
08.01.2023 01:30;79.378;;
08.01.2023 01:45;74.151;;
08.01.2023 02:00;65.249;;
08.01.2023 02:15;57.608;;
08.01.2023 02:30;56.856;;
08.01.2023 02:45;62.287;;
08.01.2023 03:00;63.675;;
08.01.2023 03:15;67.855;;
08.01.2023 03:30;68.476;;
08.01.2023 03:45;69.877;;
08.01.2023 04:00;71.664;;
08.01.2023 04:15;69.514;;
08.01.2023 04:30;71.655;;
08.01.2023 04:45;76.222;;
08.01.2023 05:00;68.376;;
08.01.2023 05:15;64.334;;
08.01.2023 05:30;58.472;;
08.01.2023 05:45;55.738;;
08.01.2023 06:00;53.759;;
08.01.2023 06:15;55.283;;
08.01.2023 06:30;58.209;;
08.01.2023 06:45;63.784;;
08.01.2023 07:00;64.276;;
08.01.2023 07:15;70.008;;
08.01.2023 07:30;75.128;;
08.01.2023 07:45;68.324;;
08.01.2023 08:00;65.090;;
08.01.2023 08:15;68.085;;
08.01.2023 08:30;67.792;;
08.01.2023 08:45;72.201;;
08.01.2023 09:00;78.567;;
08.01.2023 09:15;79.774;;
08.01.2023 09:30;89.309;;
08.01.2023 09:45;98.185;;
08.01.2023 10:00;101.919;;
08.01.2023 10:15;103.637;;
08.01.2023 10:30;108.636;;
08.01.2023 10:45;111.738;;
08.01.2023 11:00;115.120;;
08.01.2023 11:15;116.471;;
08.01.2023 11:30;119.631;;
08.01.2023 11:45;113.205;;
08.01.2023 12:00;104.908;;
08.01.2023 12:15;113.132;;
08.01.2023 12:30;115.837;;
08.01.2023 12:45;113.397;;
08.01.2023 13:00;116.556;;
08.01.2023 13:15;114.696;;
08.01.2023 13:30;108.650;;
08.01.2023 13:45;106.901;;
08.01.2023 14:00;106.718;;
08.01.2023 14:15;104.374;;
08.01.2023 14:30;103.361;;
08.01.2023 14:45;101.793;;
08.01.2023 15:00;96.597;;
08.01.2023 15:15;107.650;;
08.01.2023 15:30;107.080;;
08.01.2023 15:45;105.025;;
08.01.2023 16:00;108.536;;
08.01.2023 16:15;109.692;;
08.01.2023 16:30;117.010;;
08.01.2023 16:45;118.250;;
08.01.2023 17:00;120.819;;
08.01.2023 17:15;129.698;;
08.01.2023 17:30;139.265;;
08.01.2023 17:45;133.746;;
08.01.2023 18:00;130.077;;
08.01.2023 18:15;131.433;;
08.01.2023 18:30;131.899;;
08.01.2023 18:45;138.603;;
08.01.2023 19:00;142.628;;
08.01.2023 19:15;138.517;;
08.01.2023 19:30;127.270;;
08.01.2023 19:45;122.959;;
08.01.2023 20:00;120.767;;
08.01.2023 20:15;119.205;;
08.01.2023 20:30;120.183;;
08.01.2023 20:45;117.228;;
08.01.2023 21:00;113.367;;
08.01.2023 21:15;106.978;;
08.01.2023 21:30;105.088;;
08.01.2023 21:45;108.302;;
08.01.2023 22:00;108.935;;
08.01.2023 22:15;107.561;;
08.01.2023 22:30;101.927;;
08.01.2023 22:45;95.323;;
08.01.2023 23:00;85.808;;
08.01.2023 23:15;74.909;;
08.01.2023 23:30;72.194;;
08.01.2023 23:45;70.193;;
09.01.2023 00:00;67.368;;
09.01.2023 00:15;62.961;;
09.01.2023 00:30;60.982;;
09.01.2023 00:45;59.643;;
09.01.2023 01:00;59.553;;
09.01.2023 01:15;60.343;;
09.01.2023 01:30;59.392;;
09.01.2023 01:45;59.630;;
09.01.2023 02:00;61.193;;
09.01.2023 02:15;60.872;;
09.01.2023 02:30;65.192;;
09.01.2023 02:45;73.703;;
09.01.2023 03:00;83.607;;
09.01.2023 03:15;93.403;;
09.01.2023 03:30;95.222;;
09.01.2023 03:45;91.918;;
09.01.2023 04:00;79.872;;
09.01.2023 04:15;75.887;;
09.01.2023 04:30;75.223;;
09.01.2023 04:45;72.949;;
09.01.2023 05:00;77.841;;
09.01.2023 05:15;85.160;;
09.01.2023 05:30;82.678;;
09.01.2023 05:45;82.163;;
09.01.2023 06:00;92.102;;
09.01.2023 06:15;94.466;;
09.01.2023 06:30;94.317;;
09.01.2023 06:45;102.320;;
09.01.2023 07:00;108.846;;
09.01.2023 07:15;122.821;;
09.01.2023 07:30;131.729;;
09.01.2023 07:45;131.086;;
09.01.2023 08:00;134.427;;
09.01.2023 08:15;136.290;;
09.01.2023 08:30;132.198;;
09.01.2023 08:45;129.260;;
09.01.2023 09:00;128.306;;
09.01.2023 09:15;133.021;;
09.01.2023 09:30;137.765;;
09.01.2023 09:45;137.915;;
09.01.2023 10:00;139.600;;
09.01.2023 10:15;140.357;;
09.01.2023 10:30;137.778;;
09.01.2023 10:45;133.985;;
09.01.2023 11:00;132.774;;
09.01.2023 11:15;133.348;;
09.01.2023 11:30;135.671;;
09.01.2023 11:45;142.780;;
09.01.2023 12:00;140.643;;
09.01.2023 12:15;129.281;;
09.01.2023 12:30;135.063;;
09.01.2023 12:45;143.711;;
09.01.2023 13:00;143.398;;
09.01.2023 13:15;143.603;;
09.01.2023 13:30;144.091;;
09.01.2023 13:45;139.731;;
09.01.2023 14:00;136.752;;
09.01.2023 14:15;137.110;;
09.01.2023 14:30;138.507;;
09.01.2023 14:45;139.691;;
09.01.2023 15:00;142.497;;
09.01.2023 15:15;143.667;;
09.01.2023 15:30;141.187;;
09.01.2023 15:45;133.952;;
09.01.2023 16:00;132.204;;
09.01.2023 16:15;137.817;;
09.01.2023 16:30;135.858;;
09.01.2023 16:45;140.544;;
09.01.2023 17:00;142.051;;
09.01.2023 17:15;152.424;;
09.01.2023 17:30;156.562;;
09.01.2023 17:45;158.211;;
09.01.2023 18:00;156.659;;
09.01.2023 18:15;151.886;;
09.01.2023 18:30;151.367;;
09.01.2023 18:45;152.133;;
09.01.2023 19:00;149.606;;
09.01.2023 19:15;155.837;;
09.01.2023 19:30;160.208;;
09.01.2023 19:45;163.424;;
09.01.2023 20:00;172.062;;
09.01.2023 20:15;164.169;;
09.01.2023 20:30;167.273;;
09.01.2023 20:45;165.570;;
09.01.2023 21:00;157.973;;
09.01.2023 21:15;149.481;;
09.01.2023 21:30;143.036;;
09.01.2023 21:45;132.990;;
09.01.2023 22:00;140.008;;
09.01.2023 22:15;141.577;;
09.01.2023 22:30;137.461;;
09.01.2023 22:45;137.170;;
09.01.2023 23:00;131.128;;
09.01.2023 23:15;122.189;;
09.01.2023 23:30;116.863;;
09.01.2023 23:45;111.768;;
10.01.2023 00:00;107.870;;
10.01.2023 00:15;99.640;;
10.01.2023 00:30;94.154;;